Regional Weather Roundup
Issued by NWS Spokane, WA

Home | Current Version | Previous Version | Text Only | Print | Product List | Glossary On
Versions: 1 2 3 4 5 6 7 8 9 10 11 12 13 14 15 16 17 18 19 20 21 22 23 24 25 26 27 28 29 30 31 32 33 34 35 36 37 38 39 40 41 42 43 44 45 46 47 48 49 50
000
NZUS01 KOTX 250900
RWROTX
EASTERN WASHINGTON/NORTHERN IDAHO ROUNDUP
NATIONAL WEATHER SERVICE, SPOKANE WA
200 AM PDT SAT OCT 25 2014

Note: "fair" indicated few or no clouds below 12,000 feet with no
significant weather and/or obstructions to visibility.

...NORTHEAST WASHINGTON AND NORTHERN IDAHO PANHANDLE...

CITY           SKY/WX    TMP DP  RH WIND       PRES   REMARKS
SPOKANE INTL   CLOUDY    45  42  89 NE9       29.87F
SPOKANE DOWNTO CLOUDY    47  43  86 CALM      29.88F
COEUR D ALENE  CLOUDY   N/A N/A N/A N15       29.89F
DEER PARK      CLOUDY    47  40  76 NE12      29.90F

...SOUTHEAST WASHINGTON AND SOUTHERN IDAHO PANHANDLE...

CITY           SKY/WX    TMP DP  RH WIND       PRES   REMARKS
WALLA WALLA    FOG       48  48 100 S7        29.80F VSB 1/4
PULLMAN/MOSCOW CLOUDY    49  43  80 E14       29.85F
LOWELL           N/A     48  46  93 VRB3      29.94F

...COLUMBIA BASIN...

CITY           SKY/WX    TMP DP  RH WIND       PRES   REMARKS
EPHRATA        CLOUDY    50  46  86 N13       29.83F
MOSES LAKE     LGT RAIN  49  45  86 N13       29.83F
TRI CITIES     CLOUDY    50  49  96 NW12      29.81F
HERMISTON      CLOUDY    49  46  90 S3        29.80F
PENDLETON      FOG       47  46  97 CALM      29.79F VSB 1/4

...EAST SLOPES CASCADES...

CITY           SKY/WX    TMP DP  RH WIND       PRES   REMARKS
THE DALLES     CLOUDY    52  50  93 CALM      29.79F
YAKIMA         CLOUDY    50  46  86 W7        29.83F
ELLENSBURG     CLOUDY    48  44  86 CALM      29.82F
WENATCHEE      CLOUDY    47  44  90 W8        29.89F
OMAK           CLOUDY    45  43  93 N8        29.92F

...SOUTHERN BRITISH COLUMBIA...

CITY           SKY/WX    TMP DP  RH WIND       PRES   REMARKS

...WESTERN MONTANA...

CITY           SKY/WX    TMP DP  RH WIND       PRES   REMARKS
MISSOULA       CLOUDY    44  43  96 SE5       30.02F

...NEIGHBORING CITIES...

CITY           SKY/WX    TMP DP  RH WIND       PRES   REMARKS
SEATTLE        CLOUDY    50  48  93 NW8       29.67F



USA.gov is the U.S. government's official web portal to all federal, state and local government web resources and services.